Kirksville, MO

9:19 AM CST on November 19, 2017 (GMT -0600)
Kirksville Regional

Weather History for KIRK - March, 2015

Change the Weather History Date:

Tuesday, March 17, 2015

  Actual Average Record
Temperature  
Mean Temperature 43 °F 41 °F  
Max Temperature 54 °F 52 °F 78 °F (2012)
Min Temperature 32 °F 31 °F 10 °F (1941)
Degree Days  
Heating Degree Days 22 24  
Month to date heating degree days 391 462  
Since 1 July heating degree days 5070 4995  
Cooling Degree Days 0 0  
Month to date cooling degree days 1 0  
Year to date cooling degree days 1 0  
Moisture  
Dew Point 27 °F    
Average Humidity 55    
Maximum Humidity 85    
Minimum Humidity 24    
Precipitation  
Precipitation 0.00 in 0.09 in 1.17 in (1965)
Month to date precipitation 0.10 1.43  
Year to date precipitation 2.15 4.23  
Sea Level Pressure  
Sea Level Pressure 30.31 in    
Wind  
Wind Speed 16 mph (NNE)    
Max Wind Speed 25 mph    
Max Gust Speed 34 mph    
Visibility 10 miles    
Events Rain    
T = Trace of Precipitation, MM = Missing Value Source: NWS Daily Summary

Daily Weather History Graph

Daily Weather History Graph

Search for Another Location

Airport or City:

Trip Planner

Search our weather history database for the weather conditions in past years. The results will help you decide how hot, cold, wet, or windy it might be!

Date:

Astronomy

Mar. 17, 2015 Rise Set
Actual Time 7:18 AM CDT 7:18 PM CDT
Civil Twilight 6:51 AM CDT 7:45 PM CDT
Nautical Twilight 6:20 AM CDT 8:17 PM CDT
Astronomical Twilight 5:48 AM CDT 8:49 PM CDT
Moon 5:18 AM CDT (3/17) 4:23 PM CDT (3/17)
Length of Visible Light 12h 54m
Length of Day
12h 00m
Waning Crescent, 11% of the Moon is Illuminated
Mar 17
Waning Crescent
Mar 20
New
Mar 27
First Quarter
Apr 4
Full
Apr 11
Last Quarter

Hourly Weather History & Observations

Time (CDT) Temp. Windchill Dew Point Humidity Pressure Visibility Wind Dir Wind Speed Gust Speed Precip Events Conditions
12:55 AM 55.0 °F - 42.1 °F 62% 30.02 in 10.0 mi North 13.8 mph - N/A   Clear
1:55 AM 52.0 °F - 41.0 °F 66% 30.06 in 10.0 mi North 20.7 mph 27.6 mph N/A   Clear
2:55 AM 48.0 °F - 42.1 °F 80% 30.10 in 10.0 mi North 24.2 mph 31.1 mph N/A   Clear
3:55 AM 45.0 °F 36.6 °F 39.9 °F 82% 30.13 in 10.0 mi North 21.9 mph 29.9 mph N/A   Clear
4:55 AM 43.0 °F 34.8 °F 37.9 °F 82% 30.17 in 10.0 mi North 18.4 mph 29.9 mph 0.00 in   Clear
5:55 AM 42.1 °F 33.6 °F 36.0 °F 79% 30.22 in 10.0 mi North 18.4 mph 28.8 mph N/A   Clear
6:55 AM 39.9 °F 30.5 °F 35.1 °F 83% 30.26 in 10.0 mi North 19.6 mph - N/A   Clear
7:55 AM 39.9 °F 30.8 °F 34.0 °F 79% 30.31 in 10.0 mi North 18.4 mph 26.5 mph N/A   Clear
8:55 AM 42.1 °F 33.3 °F 32.0 °F 67% 30.35 in 10.0 mi NNE 19.6 mph 27.6 mph 0.00 in   Clear
9:55 AM 43.0 °F 34.0 °F 30.9 °F 62% 30.38 in 10.0 mi NNE 21.9 mph 29.9 mph 0.00 in Rain Light Rain
10:55 AM 46.9 °F - 28.9 °F 50% 30.40 in 10.0 mi NE 20.7 mph 28.8 mph 0.00 in   Clear
11:55 AM 48.9 °F - 25.0 °F 39% 30.42 in 10.0 mi NNE 20.7 mph 26.5 mph N/A   Clear
12:55 PM 50.0 °F - 18.0 °F 28% 30.42 in 10.0 mi NE 18.4 mph 24.2 mph N/A   Clear
1:55 PM 52.0 °F - 19.9 °F 28% 30.41 in 10.0 mi NE 16.1 mph 24.2 mph N/A   Clear
2:55 PM 53.1 °F - 18.0 °F 25% 30.38 in 10.0 mi NE 15.0 mph 25.3 mph 0.00 in   Clear
3:55 PM 52.0 °F - 16.0 °F 24% 30.38 in 10.0 mi NE 13.8 mph - N/A   Clear
4:55 PM 53.1 °F - 17.1 °F 24% 30.38 in 10.0 mi NNE 13.8 mph 18.4 mph N/A   Clear
5:55 PM 51.1 °F - 15.1 °F 24% 30.38 in 10.0 mi NNE 15.0 mph - N/A   Clear
6:55 PM 46.0 °F 41.0 °F 16.0 °F 30% 30.38 in 10.0 mi NNE 10.4 mph - N/A   Clear
7:55 PM 39.0 °F 32.3 °F 18.0 °F 43% 30.37 in 10.0 mi NNE 10.4 mph - N/A   Clear
8:55 PM 37.0 °F 31.0 °F 18.0 °F 46% 30.38 in 10.0 mi NNE 8.1 mph - N/A   Clear
9:55 PM 36.0 °F 29.0 °F 19.0 °F 50% 30.39 in 10.0 mi NNE 9.2 mph - N/A   Clear
10:55 PM 32.0 °F 24.2 °F 21.0 °F 64% 30.38 in 10.0 mi NNE 9.2 mph - N/A   Clear
11:55 PM 33.1 °F 27.7 °F 21.0 °F 61% 30.37 in 10.0 mi NE 5.8 mph - N/A   Clear